Marshfield, WI

6:55 PM CST on February 26, 2017 (GMT -0600)
Marshfield Municipal

Weather History for KMFI - April, 2014

Change the Weather History Date:

Wednesday, April 23, 2014

  Actual Average Record
Temperature  
Mean Temperature 40 °F -  
Max Temperature 51 °F 60 °F 84 °F (1980)
Min Temperature 30 °F 34 °F 19 °F (1930)
Degree Days  
Heating Degree Days 24    
Moisture  
Dew Point 26 °F    
Average Humidity 57    
Maximum Humidity 82    
Minimum Humidity 33    
Precipitation  
Precipitation 0.02 in - - ()
Sea Level Pressure  
Sea Level Pressure 30.13 in    
Wind  
Wind Speed 5 mph (ESE)    
Max Wind Speed 13 mph    
Max Gust Speed -    
Visibility 10 miles    
Events Rain    
Averages and records for this station are not official NWS values.
T = Trace of Precipitation, MM = Missing Value Source: NWS Daily Summary

Daily Weather History Graph

Daily Weather History Graph

Search for Another Location

Airport or City:

Trip Planner

Search our weather history database for the weather conditions in past years. The results will help you decide how hot, cold, wet, or windy it might be!

Date:

Astronomy

Apr. 23, 2014 Rise Set
Actual Time 6:03 AM CDT 7:55 PM CDT
Civil Twilight 5:32 AM CDT 8:27 PM CDT
Nautical Twilight 4:53 AM CDT 9:05 PM CDT
Astronomical Twilight 4:12 AM CDT 9:47 PM CDT
Moon 2:50 AM CDT (4/23) 1:50 PM CDT (4/23)
Length of Visible Light 14h 54m
Length of Day
13h 52m
Waning Crescent, 34% of the Moon is Illuminated
Apr 23
Waning Crescent
Apr 29
New
May 6
First Quarter
May 14
Full
May 21
Last Quarter

Hourly Weather History & Observations

Time (CDT) Temp. Windchill Dew Point Humidity Pressure Visibility Wind Dir Wind Speed Gust Speed Precip Events Conditions
12:54 AM 36.0 °F - 25.0 °F 64% 30.15 in 10.0 mi Calm Calm - N/A   Clear
1:54 AM 34.0 °F - 25.0 °F 70% 30.15 in 10.0 mi Calm Calm - N/A   Clear
2:54 AM 34.0 °F - 26.1 °F 73% 30.16 in 10.0 mi Calm Calm - N/A   Clear
3:54 AM 33.1 °F 30.0 °F 25.0 °F 72% 30.17 in 10.0 mi NE 3.5 mph - N/A   Clear
4:54 AM 32.0 °F - 25.0 °F 75% 30.17 in 10.0 mi Calm Calm - N/A   Clear
5:54 AM 30.9 °F 27.5 °F 25.0 °F 79% 30.17 in 10.0 mi ENE 3.5 mph - N/A   Clear
6:54 AM 32.0 °F 28.7 °F 27.0 °F 82% 30.17 in 10.0 mi East 3.5 mph - N/A   Clear
7:54 AM 36.0 °F 30.3 °F 28.0 °F 73% 30.19 in 10.0 mi ESE 6.9 mph - N/A   Clear
8:54 AM 41.0 °F 34.7 °F 27.0 °F 57% 30.19 in 10.0 mi ESE 10.4 mph - N/A   Clear
9:54 AM 45.0 °F 39.7 °F 27.0 °F 49% 30.19 in 10.0 mi ESE 10.4 mph - N/A   Clear
10:54 AM 46.0 °F 41.4 °F 27.0 °F 47% 30.17 in 10.0 mi SE 9.2 mph - N/A   Clear
12:54 PM 48.9 °F - 24.1 °F 38% 30.16 in 10.0 mi ESE 11.5 mph - N/A   Clear
1:54 PM 50.0 °F - 25.0 °F 38% 30.14 in 10.0 mi SE 9.2 mph - N/A   Clear
3:54 PM 50.0 °F - 24.1 °F 36% 30.12 in 10.0 mi SE 8.1 mph - N/A   Overcast
4:54 PM 51.1 °F - 23.0 °F 33% 30.09 in 10.0 mi ESE 11.5 mph - N/A   Overcast
5:54 PM 50.0 °F - 24.1 °F 36% 30.09 in 10.0 mi SE 12.7 mph - N/A   Overcast
6:54 PM 48.0 °F - 25.0 °F 41% 30.07 in 10.0 mi ESE 12.7 mph - N/A   Overcast
7:54 PM 46.9 °F - 25.0 °F 42% 30.04 in 10.0 mi East 10.4 mph - N/A   Overcast
8:54 PM 46.0 °F 41.0 °F 26.1 °F 46% 30.04 in 10.0 mi ESE 10.4 mph - N/A   Overcast
9:54 PM 45.0 °F 40.1 °F 28.9 °F 53% 30.06 in 10.0 mi SE 9.2 mph - N/A   Overcast
10:54 PM 42.1 °F 36.6 °F 33.1 °F 70% 30.07 in 7.0 mi ESE 9.2 mph - 0.01 in Rain Light Rain
11:54 PM 39.9 °F 33.9 °F 33.1 °F 77% 30.07 in 8.0 mi SE 9.2 mph - 0.01 in Rain Light Rain